Regional Weather Roundup
Issued by NWS

Home | Current Version | Previous Version | Text Only | Print | Product List | Glossary On
Versions: 1 2 3 4 5 6 7 8 9 10 11 12 13 14 15 16 17 18 19 20 21 22 23 24 25 26 27 28 29 30 31 32 33 34 35 36 37 38 39 40 41 42
000
ASUS46 KSEW 271610
RWRWA

WASHINGTON REGIONAL WEATHER ROUNDUP
NATIONAL WEATHER SERVICE SEATTLE WA
800 AM PST SAT DEC 27 2014

NOTE:"FAIR" INDICATES FEW OR NO CLOUDS BELOW 12,000 FEET WITH NO
SIGNIFICANT WEATHER AND/OR OBSTRUCTIONS TO VISIBILITY.

WAZ505-507>509-271700-
SEATTLE, TACOMA, EVERETT, AND VICINITY

CITY           SKY/WX    TMP DP  RH WIND       PRES   REMARKS
EVERETT        LGT RAIN  42  40  92 S9        30.11F VSB 1
BOEING FIELD   CLOUDY    44  40  85 SE10      30.13F
RENTON         LGT RAIN  41  40  96 SE6       30.14F FOG
SEATAC AIRPORT CLOUDY    43  41  93 S12       30.14F
JBLM-MCCHORD   CLOUDY    43  43 100 S10       30.15F
PUYALLUP       NOT AVBL
BREMERTON      CLOUDY    43  43 100 S15G23    30.13F
JBLM-FT LEWIS  CLOUDY    45  43  93 SE12      30.15F
TACOMA NARROWS LGT RAIN  45  43  93 S13       30.15F
$$

WAZ001-503-506-510-514-515-271700-
NORTH INTERIOR

CITY           SKY/WX    TMP DP  RH WIND       PRES   REMARKS
BELLINGHAM     LGT RAIN  39  38  96 CALM      30.08F FOG
FRIDAY HARBOR  LGT RAIN  44  42  93 S12       30.09F
EASTSOUND      CLOUDY    43  41  93 S8        30.07F
PORT ANGELES   CLOUDY    42  39  89 MISG      30.09F
NAS WHIDBEY    CLOUDY    45  40  82 SE12      30.10F
ARLINGTON      CLOUDY    37  34  87 NE6       30.14F
BURLINGTON     CLOUDY    39  39 100 E5        30.12F
$$

WAZ020-022-039-040-504-511-512-271700-
SOUTHWEST INTERIOR

CITY           SKY/WX    TMP DP  RH WIND       PRES   REMARKS
SHELTON        LGT RAIN  42  40  92 S5        30.12F FOG
OLYMPIA        LGT RAIN  44  43  96 SW7       30.17F FOG
CHEHALIS       CLOUDY    46  45  93 S9        30.19F
KELSO          CLOUDY    45  39  81 SE13G20   30.26F
VANCOUVER      CLOUDY    45  38  76 SE8       30.27S
SCAPPOOSE, OR  CLOUDY    44  41  89 SE6       30.25F
PORTLAND, OR   DRIZZLE   44  41  89 SE6       30.28S
$$

WAZ021-516-517-271700-
WASHINGTON COAST

CITY           SKY/WX    TMP DP  RH WIND       PRES   REMARKS
FORKS          RAIN      47  47 100 W13G20    30.13S FOG
HOQUIAM        LGT RAIN  49  47  93 SW10      30.16F FOG
ASTORIA, OR    CLOUDY    50  48  93 W9        30.20F
$$

WAZ019-023-024-040-518-519-271700-
CASCADE MOUNTAINS AND COLUMBIA GORGE

CITY           SKY/WX    TMP DP  RH WIND       PRES   REMARKS
TROUTDALE, OR  LGT RAIN  44  42  93 CALM      30.27S
THE DALLES, OR CLOUDY    37  34  89 CALM      30.25F
$$

WAZ026-027-041>044-520-521-271700-
EAST SLOPES

CITY           SKY/WX    TMP DP  RH WIND       PRES   REMARKS
OMAK           CLOUDY    28  23  81 SE3       30.15F
WENATCHEE      CLOUDY    30  26  85 CALM      30.15F
ELLENSBURG     CLOUDY    31  26  82 W5        30.14F
YAKIMA         CLOUDY    31  25  78 W6        30.19F
$$

WAZ028-034-035-271700-
COLUMBIA BASIN

CITY           SKY/WX    TMP DP  RH WIND       PRES   REMARKS
EPHRATA        CLOUDY    30  28  92 N3        30.15F
MOSES LAKE     CLOUDY    30  29  96 CALM      30.17F
PASCO          CLOUDY    38  33  82 CALM      30.22F
HERMISTON, OR  CLOUDY    36  31  82 SE5       30.22F
$$

WAZ036>038-271700-
NORTHEAST WASHINGTON

CITY           SKY/WX    TMP DP  RH WIND       PRES   REMARKS
SPOKANE GEIGER LGT SNOW  30  28  92 S5        30.14F FOG
SPOKANE FELTS  LGT SNOW  32  29  88 CALM      30.18S FOG
FAIRCHILD AFB  LGT SNOW  29  29  99 S7        30.14F FOG
COEURDALENE,ID CLOUDY    30  28  93 S7        30.15S
DEER PARK      LGT SNOW  29  27  92 CALM      30.16F FOG
$$

WAZ029>033-271700-
SOUTHEAST WASHINGTON

CITY           SKY/WX    TMP DP  RH WIND       PRES   REMARKS
PULLMAN        LGT SNOW  29  27  92 E8        30.19S FOG
LEWISTON, ID   CLOUDY    32  26  78 N3        30.22F
WALLA WALLA    CLOUDY    42  32  67 S13       30.21F
PENDLETON, OR  CLOUDY    39  29  67 S13       30.20F
$$


USA.gov is the U.S. government's official web portal to all federal, state and local government web resources and services.